Hourly Data Report for October 28, 2016

All times are specified in Local Standard Time (LST). Add 1 hour to adjust for Daylight Saving Time where and when it is observed.

GJOA HAVEN A
NUNAVUT

68°38'08.000" N
95°51'01.000" W
46.90 m
2302337
71597
YHK

Download Data

Hourly Data (October 2016)
Hourly Data Report for October 28, 2016
Temp Definition
°C
Dew Point Temp Definition
°C
Rel Hum Definition
%
Wind Dir Definition
10's deg

Wind Spd Definition
km/h
Visibility Definition
km
Stn Press Definition
kPa
Hmdx Definition


Wind Chill Definition


Weather Definition


TIME
00:00 Legend Double Dagger -16.9 -18.5 88 31 21 3.2 101.39   -27 Snow
01:00 Legend Double Dagger -18.2 -19.7 88 29 21 2.4 101.40   -28 Fog
02:00 Legend Double Dagger -20.3 -22.3 84 30 21 9.7 101.40   -31 Snow
03:00 Legend Double Dagger -22.3 -24.5 83 29 15 14.5 101.37   -32 LegendNANA
04:00 Legend Double Dagger -20.3 -22.1 86 29 9 12.9 101.36   -27 LegendNANA
05:00 Legend Double Dagger -19.1 -20.9 86 28 11 12.9 101.32   -27 LegendNANA
06:00 Legend Double Dagger -18.4 -20.1 87 31 18 1.2 101.26   -28 Fog
07:00 Legend Double Dagger -19.0 -20.8 86 31 21 9.7 101.20   -29 Fog
08:00 Legend Double Dagger -20.9 -22.9 84 31 15 1.6 101.16   -30 Fog
09:00 Legend Double Dagger -20.2 -22.1 85 33 22 1.2 101.10   -31 Fog
10:00 Legend Double Dagger -19.9 -21.8 85 32 28 3.6 101.03   -32 Fog
11:00 Legend Double Dagger -19.4 -21.2 86 32 30 9.7 100.99   -32 Fog
12:00 Legend Double Dagger -18.6 -20.4 86 32 30 4.8 100.93   -31 Fog
13:00 Legend Double Dagger -18.4 -20.2 86 32 24 6.4 100.88   -29 Fog
14:00 Legend Double Dagger -16.4 -17.8 89 32 22 4.8 100.82   -26 Snow
15:00 Legend Double Dagger -15.9 -17.3 89 33 28 9.7 100.78   -27 Fog
16:00 Legend Double Dagger -15.7 -17.1 89 31 30 9.7 100.72   -27 Snow
17:00 Legend Double Dagger -15.1 -16.4 90 33 24 11.3 100.63   -25 Snow
18:00 Legend Double Dagger -13.9 -15.1 91 32 32 9.7 100.53   -25 Fog
19:00 Legend Double Dagger -14.1 -15.4 90 32 34 6.4 100.43   -25 Fog
20:00 Legend Double Dagger -13.7 -14.9 91 33 39 4.8 100.36   -26 Snow
21:00 Legend Double Dagger -14.2 -15.5 90 33 39 4.8 100.28   -26 Fog
22:00 Legend Double Dagger -14.3 -15.6 90 33 39 4.8 100.22   -26 Fog
23:00 Legend Double Dagger -13.1 -14.3 91 35 37 2.0 100.15   -25 Snow

Notes on Data Quality.

Legend

  • E = Estimated
  • M = Missing
  • NA = Not Available
  • ‡ = Partner data that is not subject to review by the National Climate Archives
Date modified: